Location: Newark
(7.0858°N, 171.3717°E)
Time: 17:30:25
(UTC+00:00)

Altair - Pass Details

Date: 28 November 2020
Orbit: 1501 x 1682 km, 47.2° (Epoch: 20 January)

Event Time Altitude Azimuth Distance (km) Brightness Sun altitude
Rises 06:32:20 0° 221° (SW) 4,860 11.4 -4.8°
Reaches altitude 10° 06:35:30 10° 221° (SW) 3,851 10.7 -5.6°
Maximum altitude 06:45:19 87° 309° (NW) 1,582 7.6 -7.8°
Drops below altitude 10° 06:54:45 10° 39° (NE) 3,704 9.0 -10.0°
Enters shadow 06:55:56 - 39° (NE) 4,088 9.2 -10.3°
